N0MQJ Weather Reports


time (UTC)temp
F
wind
direction
speed
knots
gust
knots
rain 1hr
in
rain 24hr
in
rain mn
in
humidity
%
barometer
mb
20260906224507 83 175 0.9 6.1 0.00 0.00 0.00 15 999.8
20260906223005 83 158 0.9 4.3 0.00 0.00 0.00 15 999.7
20260906221504 83 225 0.9 5.2 0.00 0.00 0.00 15 999.7
20260906220016 82 317 0.9 7.0 0.00 0.00 0.00 16 1000.0
20260906214613 82 158 1.7 7.8 0.00 0.00 0.00 15 1000.2
20260906213101 82 343 0.9 6.1 0.00 0.00 0.00 15 1000.4
20260906211556 82 290 1.7 6.1 0.00 0.00 0.00 16 1000.7
20260906210109 82 336 0.9 4.3 0.00 0.00 0.00 17 1000.8
20260906204555 81 5 1.7 6.1 0.00 0.00 0.00 17 1000.8
20260906203053 83 168 0.9 6.1 0.00 0.00 0.00 18 1000.9
20260906201623 82 309 0.9 4.3 0.00 0.00 0.00 18 1001.1
20260906200048 80 12 0.9 3.5 0.00 0.00 0.00 17 1001.4
20260906194550 80 348 1.7 7.8 0.00 0.00 0.00 19 1001.4
20260906193045 81 330 0.9 3.5 0.00 0.00 0.00 19 1001.5
20260906191558 80 307 0.9 4.3 0.00 0.00 0.00 18 1001.6
20260906190042 79 273 0.9 7.0 0.00 0.00 0.00 20 1001.8
20260906184545 79 175 0.9 4.3 0.00 0.00 0.00 20 1002.0
20260906183042 79 323 0.9 4.3 0.00 0.00 0.00 21 1002.2
20260906181553 77 163 0.9 6.1 0.00 0.00 0.00 23 1002.4
20260906180033 77 221 0.9 4.3 0.00 0.00 0.00 27 1002.6
20260906174527 74 197 0.0 5.2 0.00 0.00 0.00 29 1003.0
20260906173027 75 333 0.9 4.3 0.00 0.00 0.00 29 1003.3
20260906171530 74 142 0.9 4.3 0.00 0.00 0.00 28 1003.4
20260906170023 73 145 0.9 4.3 0.00 0.00 0.00 30 1003.6
20260906164519 71 269 1.7 6.1 0.00 0.00 0.00 33 1003.6
20260906163024 70 234 1.7 8.7 0.00 0.00 0.00 34 1003.6
20260906161516 71 230 0.9 6.1 0.00 0.00 0.00 34 1003.6
20260906160012 70 252 0.0 2.6 0.00 0.00 0.00 38 1003.7
20260906154509 68 42 0.9 2.6 0.00 0.00 0.00 41 1003.7
20260906153004 66 346 0.9 2.6 0.00 0.00 0.00 44 1003.7
20260906151601 64 321 0.9 1.7 0.00 0.00 0.00 46 1003.8
20260906150057 61 341 0.0 1.7 0.00 0.00 0.00 51 1004.0
20260906144556 59 329 1.7 3.5 0.00 0.00 0.00 55 1004.1
20260906143054 55 312 0.0 1.7 0.00 0.00 0.00 62 1004.1
20260906141549 52 5 0.0 0.9 0.00 0.00 0.00 66 1004.1
20260906140101 51 329 0.9 2.6 0.00 0.00 0.00 68 1004.1
20260906134600 49 287 0.0 2.6 0.00 0.00 0.00 70 1004.0
20260906133046 50 317 0.9 1.7 0.00 0.00 0.00 68 1003.9
20260906131545 50 177 0.0 0.9 0.00 0.00 0.00 68 1003.7
20260906130052 50 174 0.0 1.7 0.00 0.00 0.00 68 1003.6
20260906124544 50 174 0.9 2.6 0.00 0.00 0.00 69 1003.5
20260906123043 49 177 0.9 1.7 0.00 0.00 0.00 71 1003.6
20260906121546 49 183 0.9 1.7 0.00 0.00 0.00 71 1003.5
20260906120042 49 173 0.9 1.7 0.00 0.00 0.00 71 1003.5
20260906114545 49 164 0.9 1.7 0.00 0.00 0.00 71 1003.7
20260906113043 49 178 0.9 1.7 0.00 0.00 0.00 71 1003.6
20260906111538 49 171 0.9 1.7 0.00 0.00 0.00 70 1003.6
20260906110034 50 177 0.9 1.7 0.00 0.00 0.00 67 1003.4
20260906104531 53 138 0.9 2.6 0.00 0.00 0.00 63 1003.4
20260906103030 53 202 0.0 1.7 0.00 0.00 0.00 62 1003.4
20260906101530 52 199 0.0 1.7 0.00 0.00 0.00 64 1003.4
20260906100031 53 193 0.0 1.7 0.00 0.00 0.00 62 1003.3
20260906094528 54 174 0.0 0.9 0.00 0.00 0.00 61 1003.2
20260906093026 54 281 0.0 1.7 0.00 0.00 0.00 60 1003.2
20260906091532 54 309 0.0 1.7 0.00 0.00 0.00 59 1003.3
20260906090026 53 192 0.0 0.0 0.00 0.00 0.00 63 1003.4
20260906084531 52 192 0.0 0.9 0.00 0.00 0.00 65 1003.4
20260906083022 52 187 0.9 1.7 0.00 0.00 0.00 64 1003.4
20260906081524 54 169 0.9 1.7 0.00 0.00 0.00 61 1003.3
20260906080016 55 182 0.9 0.9 0.00 0.00 0.00 59 1003.3
20260906074513 56 259 0.0 1.7 0.00 0.00 0.00 57 1003.3
20260906073012 57 294 0.0 1.7 0.00 0.00 0.00 56 1003.4
20260906071511 57 294 0.0 1.7 0.00 0.00 0.00 56 1003.4
20260906070010 57 281 0.0 1.7 0.00 0.00 0.00 56 1003.5
20260906064519 57 311 0.0 1.7 0.00 0.00 0.00 57 1003.4
20260906063006 56 313 0.9 2.6 0.00 0.00 0.00 57 1003.5
20260906061505 56 311 0.9 3.5 0.00 0.00 0.00 58 1003.6
20260906060001 56 327 0.9 2.6 0.00 0.00 0.00 59 1003.6
20260906054502 56 346 1.7 3.5 0.00 0.00 0.00 59 1003.7
20260906053001 56 313 1.7 3.5 0.00 0.00 0.00 58 1003.9
20260906051502 57 325 2.6 6.1 0.00 0.00 0.00 58 1003.8
20260906050003 57 336 3.5 6.1 0.00 0.00 0.00 57 1003.9
20260906044602 58 331 2.6 5.2 0.00 0.00 0.00 53 1003.7
20260906043109 60 313 0.0 1.7 0.00 0.00 0.00 50 1003.5
20260906041602 61 290 0.0 1.7 0.00 0.00 0.00 48 1003.5
20260906040059 62 138 0.0 0.9 0.00 0.00 0.00 47 1003.6
20260906034602 61 172 0.0 1.7 0.00 0.00 0.00 47 1003.5
20260906033058 62 188 0.0 1.7 0.00 0.00 0.00 46 1003.4
20260906031624 63 182 0.0 1.7 0.00 0.00 0.00 45 1003.4
20260906030058 63 172 0.0 1.7 0.00 0.00 0.00 44 1003.2
20260906024559 64 196 0.0 1.7 0.00 0.00 0.00 43 1003.1
20260906023109 65 196 0.0 2.6 0.00 0.00 0.00 43 1002.9
20260906021557 65 188 0.0 4.3 0.00 0.00 0.00 42 1002.9
20260906020100 66 150 0.0 1.7 0.00 0.00 0.00 42 1002.7
20260906014555 66 130 0.0 1.7 0.00 0.00 0.00 42 1002.6
20260906013055 67 135 0.9 6.1 0.00 0.00 0.00 42 1002.1
20260906011603 67 163 3.5 8.7 0.00 0.00 0.00 41 1002.0
20260906010053 69 168 2.6 6.1 0.00 0.00 0.00 37 1001.9
20260906004558 70 175 2.6 8.7 0.00 0.00 0.00 33 1001.8
20260906003053 72 161 3.5 8.7 0.00 0.00 0.00 33 1001.7
20260906001551 74 119 2.6 7.0 0.00 0.00 0.00 31 1001.8
20260906000059 75 200 0.0 3.5 0.00 0.00 0.00 22 1002.1
20260905234554 76 195 0.0 2.6 0.00 0.00 0.00 21 1002.2
20260905233053 78 182 0.9 7.0 0.00 0.00 0.00 19 1002.1
20260905231550 79 266 0.9 4.3 0.00 0.00 0.00 19 1002.1
20260905230048 80 263 0.0 6.1 0.00 0.00 0.00 17 1002.3